Home   Weather   Denver   Past weeks
Flag for USA

Past Weather in Denver, Colorado, USA — Yesterday and Last 2 Weeks

Now
69 °F

Passing clouds.


Feels Like: 69 °F
Forecast: 92 / 63 °F
Wind: 15 mph from South

Location: Buckley Air Force Base

Current Time: Jul 16, 2019 at 4:25:48 am

Latest Report: Jul 16, 2019 at 2:58 am


Visibility: 10 mi

Pressure: 29.84 "Hg (24.79 "Hg at 1593m altitude)

Humidity: 54%

Dew Point: 52 °F

Location of DenverLocation

Past Weather in Denver — Graph

°F

Denver Temperature Yesterday

Maximum temperature yesterday: 90 °F (at 11:58 am)
Minimum temperature yesterday: 62 °F (at 5:58 am)
Average temperature yesterday: 75 °F

High & Low Weather Summary for the Past Weeks

 TemperatureHumidityPressure
High96 °F (Jul 11, 2:58 pm)100% (Jul 1, 3:05 am)30.24 "Hg (Jul 1, 3:05 am)
Low53 °F (Jul 9, 5:58 am)13% (Jul 11, 1:58 pm)29.65 "Hg (Jul 3, 6:58 pm)
Average72 °F53%29.94 "Hg
* Reported Jul 1 3:05 am — Jul 16 2:58 am, Denver. Weather by CustomWeather, © 2019

Note: Actual official high and low records may vary slightly from our data, if they occured in-between our weather recording intervals... More about our weather records

Advertising

Denver Weather History for the Previous 24 Hours

Scroll right to see more
 ConditionsComfort  
Time TempWeatherWind HumidityBarometerVisibility
2:58 am
Tue, Jul 16
69 °FPassing clouds.15 mph54%29.84 "Hg10 mi
1:58 am65 °FPassing clouds.14 mph69%29.86 "Hg10 mi
11:58 pm
Mon, Jul 15
69 °FPassing clouds.12 mph64%29.85 "Hg10 mi
10:58 pm69 °FPassing clouds.13 mph63%29.88 "Hg10 mi
9:58 pm69 °FPassing clouds.8 mph63%29.90 "Hg10 mi
8:58 pm67 °FPartly cloudy.7 mph73%29.93 "Hg10 mi
7:58 pm74 °FPartly sunny.8 mph57%29.96 "Hg10 mi
6:58 pm74 °FBroken clouds.10 mph58%29.97 "Hg10 mi
5:58 pm77 °FBroken clouds.20 mph52%29.94 "Hg10 mi
4:58 pm87 °FBroken clouds.15 mph31%29.91 "Hg10 mi
3:58 pm81 °FBroken clouds.13 mph32%29.93 "Hg10 mi
2:58 pm84 °FBroken clouds.18 mph30%29.90 "Hg10 mi
1:58 pm88 °FScattered clouds.20 mph29%29.90 "Hg10 mi
12:58 pm89 °FScattered clouds.23 mph27%29.88 "Hg10 mi
11:58 am90 °FScattered clouds.8 mph26%29.88 "Hg10 mi
10:58 am85 °FPassing clouds.5 mph29%29.89 "Hg10 mi
9:58 am82 °FPassing clouds.3 mph34%29.91 "Hg10 mi
8:58 am77 °FPassing clouds.5 mph43%29.92 "Hg10 mi
7:58 am72 °FPassing clouds.9 mph49%29.93 "Hg10 mi
6:58 am64 °FPassing clouds.7 mph67%29.93 "Hg10 mi
5:58 am62 °FPassing clouds.8 mph67%29.92 "Hg10 mi
4:58 am64 °FPassing clouds.6 mph60%29.90 "Hg10 mi
Weather by CustomWeather, © 2019

See weather overview

LIVE PARTIAL LUNAR ECLIPSE – Watch the eclipse as it happens